$Date,$Time,DM0201B,DM0203B,DM0205B,DM0207B,DM0209B
11/30/98,00:00:01,92,346,-11,548,963
11/30/98,00:05:01,73,352,-11,552,963
11/30/98,00:10:01,86,341,-11,555,963
11/30/98,00:15:01,81,351,-11,558,963
11/30/98,00:20:01,98,6,-11,560,963
11/30/98,00:25:01,87,350,-11,562,963
11/30/98,00:30:01,110,340,-10,564,963
11/30/98,00:35:01,81,354,-10,566,963
11/30/98,00:40:01,112,340,-10,566,963
11/30/98,00:45:01,79,322,-10,568,963
11/30/98,00:50:01,88,318,-10,570,963
11/30/98,00:55:01,69,323,-10,571,963
11/30/98,01:00:01,99,326,-10,571,963
11/30/98,01:05:01,125,330,-10,571,963
11/30/98,01:10:01,102,339,-10,573,963
11/30/98,01:15:01,122,341,-10,573,963
11/30/98,01:20:01,86,338,-10,573,963
11/30/98,01:25:01,104,354,-10,573,963
11/30/98,01:30:01,144,339,-10,573,963
11/30/98,01:35:01,102,343,-10,575,963
11/30/98,01:40:01,138,343,-10,575,963
11/30/98,01:45:01,109,339,-10,577,963
11/30/98,01:50:01,112,340,-10,577,963
11/30/98,01:55:01,103,308,-10,579,963
11/30/98,02:00:01,96,327,-10,579,963
11/30/98,02:05:01,137,329,-10,577,963
11/30/98,02:10:01,125,333,-10,577,963
11/30/98,02:15:01,64,337,-9,577,963
11/30/98,02:20:01,108,339,-8,577,963
11/30/98,02:25:01,91,317,-8,575,963
11/30/98,02:30:01,89,344,-7,573,963
11/30/98,02:35:01,139,343,-7,572,963
11/30/98,02:40:01,82,338,-7,570,963
11/30/98,02:45:01,122,338,-7,568,963
11/30/98,02:50:01,115,342,-7,566,963
11/30/98,02:55:01,109,330,-7,564,963
11/30/98,03:00:01,82,337,-7,564,963
11/30/98,03:05:01,92,338,-7,562,963
11/30/98,03:10:01,82,1,-6,558,963
11/30/98,03:15:01,106,344,-6,556,963
11/30/98,03:20:01,107,338,-6,554,963
11/30/98,03:25:01,117,331,-6,552,963
11/30/98,03:30:01,128,341,-6,549,961
11/30/98,03:35:01,101,352,-6,547,961
11/30/98,03:40:01,81,345,-6,543,961
11/30/98,03:45:01,103,352,-6,541,961
11/30/98,03:50:01,114,355,-6,537,961
11/30/98,03:55:01,114,349,-6,535,961
11/30/98,04:00:01,84,357,-6,531,961
11/30/98,04:05:01,92,332,-5,529,961
11/30/98,04:10:01,114,354,-5,527,961
11/30/98,04:15:01,83,343,-6,523,961
11/30/98,04:20:01,112,333,-6,521,961
11/30/98,04:25:01,130,347,-6,517,961
11/30/98,04:30:01,106,336,-6,513,961
11/30/98,04:35:01,149,350,-6,511,961
11/30/98,04:40:01,125,340,-6,507,961
11/30/98,04:45:01,102,353,-6,505,961
11/30/98,04:50:01,137,349,-5,501,961
11/30/98,04:55:01,106,343,-5,499,961
11/30/98,05:00:01,171,333,-6,495,961
11/30/98,05:05:01,124,329,-6,495,961
11/30/98,05:10:01,142,323,-6,491,961
11/30/98,05:15:01,126,329,-7,489,961
11/30/98,05:20:01,128,334,-6,483,961
11/30/98,05:25:01,113,325,-6,481,961
11/30/98,05:30:01,132,335,-7,477,961
11/30/98,05:35:01,118,336,-7,473,961
11/30/98,05:40:01,130,330,-7,469,961
11/30/98,05:45:01,136,330,-6,465,961
11/30/98,05:50:01,128,327,-7,459,961
11/30/98,05:55:01,159,339,-7,455,961
11/30/98,06:00:01,155,328,-7,453,961
11/30/98,06:05:01,130,328,-7,449,961
11/30/98,06:10:01,159,315,-7,445,961
11/30/98,06:15:01,139,330,-7,441,961
11/30/98,06:20:01,136,330,-7,437,961
11/30/98,06:25:01,128,319,-7,433,961
11/30/98,06:30:01,133,324,-7,429,961
11/30/98,06:35:01,150,321,-7,425,961
11/30/98,06:40:01,157,323,-7,421,961
11/30/98,06:45:01,143,323,-7,417,961
11/30/98,06:50:01,155,323,-7,411,961
11/30/98,06:55:01,146,328,-7,405,961
11/30/98,07:00:01,141,328,-7,403,961
11/30/98,07:05:01,146,338,-7,396,961
11/30/98,07:10:01,144,331,-7,392,959
11/30/98,07:15:01,140,327,-7,386,959
11/30/98,07:20:01,156,329,-7,382,959
11/30/98,07:25:01,157,319,-7,378,959
11/30/98,07:30:01,147,317,-7,372,959
11/30/98,07:35:01,158,326,-8,366,959
11/30/98,07:40:01,148,316,-8,362,959
11/30/98,07:45:01,147,326,-8,356,959
11/30/98,07:50:01,142,315,-8,352,959
11/30/98,07:55:01,147,325,-8,344,959
11/30/98,08:00:01,155,319,-9,338,959
11/30/98,08:05:01,177,319,-9,332,959
11/30/98,08:10:01,157,319,-9,326,959
11/30/98,08:15:01,166,319,-9,322,959
11/30/98,08:20:01,162,308,-9,315,959
11/30/98,08:25:01,199,322,-9,313,959
11/30/98,08:30:01,188,312,-9,307,959
11/30/98,08:35:01,202,312,-10,301,959
11/30/98,08:40:01,166,312,-10,295,959
11/30/98,08:45:01,156,312,-9,291,959
11/30/98,08:50:01,182,314,-10,285,959
11/30/98,08:55:01,187,313,-10,281,959
11/30/98,09:00:01,168,306,-10,277,959
11/30/98,09:05:01,194,307,-10,273,959
11/30/98,09:10:01,185,307,-10,269,959
11/30/98,09:15:01,204,307,-10,263,959
11/30/98,09:20:01,155,308,-10,187,959
11/30/98,09:25:01,177,308,-10,227,959
11/30/98,09:30:01,211,308,-10,120,959
11/30/98,09:35:01,147,308,-10,45,959
11/30/98,09:40:01,169,310,-10,45,959
11/30/98,09:45:01,168,309,-10,43,959
11/30/98,09:50:01,137,309,-10,72,959
11/30/98,09:55:01,158,309,-10,227,959
11/30/98,10:00:01,160,309,-10,225,959
11/30/98,10:05:01,190,309,-10,221,959
11/30/98,10:10:01,143,309,-10,219,959
11/30/98,10:15:01,136,309,-10,213,959
11/30/98,10:20:01,145,308,-10,211,959
11/30/98,10:25:01,142,299,-10,209,959
11/30/98,10:30:01,165,299,-11,205,959
11/30/98,10:35:01,176,299,-11,201,959
11/30/98,10:40:01,176,309,-11,199,959
11/30/98,10:45:01,170,296,-11,195,959
11/30/98,10:50:01,155,299,-11,193,959
11/30/98,10:55:01,206,299,-11,189,959
11/30/98,11:00:01,194,299,-11,187,959
11/30/98,11:05:01,179,299,-11,183,959
11/30/98,11:10:01,180,299,-11,181,959
11/30/98,11:15:01,156,299,-11,179,959
11/30/98,11:20:01,178,299,-11,175,959
11/30/98,11:25:01,194,299,-11,173,959
11/30/98,11:30:01,202,299,-11,171,959
11/30/98,11:35:01,199,299,-11,169,959
11/30/98,11:40:01,196,299,-11,167,959
11/30/98,11:45:01,166,299,-11,165,959
11/30/98,11:50:01,161,309,-11,163,959
11/30/98,11:55:01,158,309,-11,161,959
11/30/98,12:00:01,151,308,-11,159,959
11/30/98,12:05:01,154,309,-11,157,959
11/30/98,12:10:01,128,304,-12,157,959
11/30/98,12:15:01,119,307,-12,155,959
11/30/98,12:20:01,122,307,-12,155,959
11/30/98,12:25:01,126,307,-12,155,959
11/30/98,12:30:01,90,306,-12,153,959
11/30/98,12:35:01,125,311,-12,153,959
11/30/98,12:40:01,107,311,-12,151,959
11/30/98,12:45:01,103,313,-12,151,959
11/30/98,12:50:01,93,323,-12,151,959
11/30/98,12:55:01,101,326,-12,151,959
11/30/98,13:00:01,117,316,-12,149,959
11/30/98,13:05:01,112,317,-12,149,959
11/30/98,13:10:01,117,318,-12,151,959
11/30/98,13:15:01,107,316,-12,151,959
11/30/98,13:20:01,110,316,-12,151,959
11/30/98,13:25:01,112,316,-12,151,959
11/30/98,13:30:01,124,314,-12,151,959
11/30/98,13:35:01,106,315,-12,153,959
11/30/98,13:40:01,93,318,-12,153,959
11/30/98,13:45:01,111,314,-12,155,959
11/30/98,13:50:01,103,320,-12,155,959
11/30/98,13:55:01,102,320,-12,157,959
11/30/98,14:00:01,109,325,-12,159,959
11/30/98,14:05:01,125,315,-12,161,959
11/30/98,14:10:01,90,325,-12,163,959
11/30/98,14:15:01,109,317,-12,165,959
11/30/98,14:20:01,79,317,-12,167,959
11/30/98,14:25:01,74,328,-12,167,957
11/30/98,14:30:01,94,314,-13,169,957
11/30/98,14:35:01,95,314,-13,171,957
11/30/98,14:40:01,84,314,-13,175,957
11/30/98,14:45:01,92,314,-12,177,957
11/30/98,14:50:01,66,314,-13,179,957
11/30/98,14:55:01,65,314,-12,183,957
11/30/98,15:00:01,88,314,-12,187,957
11/30/98,15:05:01,79,314,-12,191,957
11/30/98,15:10:01,91,314,-13,195,957
11/30/98,15:15:01,75,314,-12,199,957
11/30/98,15:20:01,77,314,-12,203,957
11/30/98,15:25:01,56,314,-12,207,957
11/30/98,15:30:01,91,303,-12,211,957
11/30/98,15:35:01,72,303,-12,215,957
11/30/98,15:40:01,88,314,-12,217,957
11/30/98,15:45:01,72,304,-12,221,957
11/30/98,15:50:01,76,303,-12,225,957
11/30/98,15:55:01,77,325,-12,227,957
11/30/98,16:00:01,54,314,-12,231,957
11/30/98,16:05:01,46,321,-12,235,957
11/30/98,16:10:01,59,323,-12,239,957
11/30/98,16:15:01,58,316,-12,243,957
11/30/98,16:20:01,48,320,-12,247,957
11/30/98,16:25:01,64,327,-12,251,957
11/30/98,16:30:01,30,329,-12,254,957
11/30/98,16:35:01,34,319,-12,258,957
11/30/98,16:40:01,19,314,-12,260,957
11/30/98,16:45:01,19,329,-12,266,957
11/30/98,16:50:01,34,310,-12,270,957
11/30/98,16:55:01,24,317,-12,273,957
11/30/98,17:00:01,3,346,-12,277,957
11/30/98,17:05:01,6,194,-12,281,957
11/30/98,17:10:01,25,351,-12,282,957
11/30/98,17:15:01,40,344,-13,280,957
11/30/98,17:20:01,30,344,-13,272,957
11/30/98,17:25:01,6,333,-12,264,957
11/30/98,17:30:01,9,296,-13,251,957
11/30/98,17:35:01,7,221,-12,249,957
11/30/98,17:40:01,5,313,-12,266,957
11/30/98,17:45:01,15,177,-12,279,957
11/30/98,17:50:01,16,152,-12,286,957
11/30/98,17:55:01,96,146,-11,296,957
11/30/98,18:00:01,93,151,-11,300,957
11/30/98,18:05:01,97,163,-11,307,957
11/30/98,18:10:01,107,157,-11,309,957
11/30/98,18:15:01,107,169,-11,313,957
11/30/98,18:20:01,128,156,-10,319,957
11/30/98,18:25:01,143,167,-10,323,957
11/30/98,18:30:01,111,174,-10,329,957
11/30/98,18:35:01,126,173,-10,331,957
11/30/98,18:40:01,114,185,-10,333,957
11/30/98,18:45:01,130,181,-10,337,957
11/30/98,18:50:01,115,180,-10,339,957
11/30/98,18:55:01,159,178,-10,341,957
11/30/98,19:00:01,158,160,-10,345,957
11/30/98,19:05:01,141,191,-10,346,957
11/30/98,19:10:01,47,160,-10,351,957
11/30/98,19:15:01,98,185,-10,354,957
11/30/98,19:20:01,164,176,-10,358,957
11/30/98,19:25:01,174,172,-10,350,957
11/30/98,19:30:01,155,197,-10,344,957
11/30/98,19:35:01,198,181,-10,360,957
11/30/98,19:40:01,260,176,-9,374,957
11/30/98,19:45:01,314,176,-9,376,957
11/30/98,19:50:01,324,170,-9,376,957
11/30/98,19:55:01,305,167,-9,378,957
11/30/98,20:00:01,294,179,-9,376,957
11/30/98,20:05:01,313,177,-9,376,957
11/30/98,20:10:01,340,179,-9,376,957
11/30/98,20:15:01,282,181,-9,378,957
11/30/98,20:20:01,237,181,-9,384,957
11/30/98,20:25:01,294,180,-9,386,955
11/30/98,20:30:01,308,170,-9,392,955
11/30/98,20:35:01,277,170,-9,394,955
11/30/98,20:40:01,335,170,-9,396,955
11/30/98,20:45:01,300,158,-9,395,955
11/30/98,20:50:01,251,158,-9,399,955
11/30/98,20:55:01,289,153,-8,402,955
11/30/98,21:00:01,155,128,-8,402,955
11/30/98,21:05:01,148,136,-8,408,955
11/30/98,21:10:01,176,158,-8,412,955
11/30/98,21:15:01,229,145,-8,416,955
11/30/98,21:20:01,198,161,-8,418,955
11/30/98,21:25:01,233,160,-8,422,955
11/30/98,21:30:01,291,161,-8,426,955
11/30/98,21:35:01,335,160,-8,432,955
11/30/98,21:40:01,362,162,-8,437,955
11/30/98,21:45:01,331,172,-8,443,955
11/30/98,21:50:01,350,172,-8,450,955
11/30/98,21:55:01,367,172,-8,456,955
11/30/98,22:00:01,407,176,-8,464,955
11/30/98,22:05:01,321,166,-8,474,955
11/30/98,22:10:01,371,176,-8,479,955
11/30/98,22:15:01,384,176,-8,486,955
11/30/98,22:20:01,352,176,-8,487,955
11/30/98,22:25:01,364,176,-8,465,955
11/30/98,22:30:01,392,166,-8,451,955
11/30/98,22:35:01,363,176,-8,467,955
11/30/98,22:40:01,397,177,-8,463,955
11/30/98,22:45:01,349,177,-8,483,955
11/30/98,22:50:01,378,177,-8,513,955
11/30/98,22:55:01,367,180,-8,521,955
11/30/98,23:00:01,391,167,-8,530,955
11/30/98,23:05:01,352,168,-8,542,955
11/30/98,23:10:01,411,168,-8,549,955
11/30/98,23:15:01,389,168,-8,537,955
11/30/98,23:20:01,421,168,-8,552,955
11/30/98,23:25:01,339,168,-8,504,955
11/30/98,23:30:01,296,168,-8,516,955
11/30/98,23:35:01,356,168,-8,594,955
11/30/98,23:40:01,363,168,-8,635,955
11/30/98,23:45:01,412,167,-8,622,955
11/30/98,23:50:01,408,167,-8,511,955
11/30/98,23:55:01,404,167,-8,464,955
12/01/98,00:00:01,,,,,
